Regional Weather Roundup
Issued by NWS

Home | Current Version | Previous Version | Text Only | Print | Product List | Glossary On
Versions: 1 2 3 4 5 6 7 8 9 10 11 12 13 14 15 16 17 18 19 20 21 22 23 24 25 26 27 28 29 30 31 32 33 34 35 36 37 38 39 40 41 42 43 44 45 46 47 48 49 50
000
ASUS43 KFSD 271010
RWRSD

WEATHER ROUNDUP FOR SOUTH DAKOTA
NATIONAL WEATHER SERVICE SIOUX FALLS SD
500 AM CDT SUN MAY 27 2018

NOTE: "FAIR" INDICATES FEW OR NO CLOUDS BELOW 12,000 FEET WITH NO
SIGNIFICANT WEATHER AND/OR OBSTRUCTIONS TO VISIBILITY.


SDZ001>005-009-010-012>017-271100-
NORTHWEST AND NORTH CENTRAL SOUTH DAKOTA

CITY           SKY/WX    TMP DP  RH WIND       PRES   REMARKS
BUFFALO          N/A     66  51  58 NE17G29   29.73R
FAITH            N/A     65  62  90 S16       29.67R
MOBRIDGE       CLOUDY    72  57  59 SE13      29.65R
$$

SDZ012>016-024>037-041>051-057-063-072>074-271100-
SOUTHWEST AND SOUTH CENTRAL SOUTH DAKOTA

CITY           SKY/WX    TMP DP  RH WIND       PRES   REMARKS
RAPID CTY ARPT MOCLDY    64  53  67 N13       29.74R
PIERRE         MOCLDY    71  59  65 SE12G21   29.68R
CUSTER         PTCLDY    56  43  61 W7        29.88R
ELLSWORTH AFB  MOCLDY    72  54  54 N14       29.75
PHILIP         CLEAR     70  54  56 S5        29.67R
PINE RIDGE     MOCLDY    76  48  37 S22G36    29.72R
SPEARFISH      FAIR      68  57  68 NW18G24   29.85R
WINNER         FAIR      75  54  47 S16G24    29.73R
$$

SDZ004>011-016>023-039-040-271100-
NORTHEAST SOUTH DAKOTA

CITY           SKY/WX    TMP DP  RH WIND       PRES   REMARKS
ABERDEEN       PTCLDY    71  56  58 S9        29.71S
WATERTOWN      CLOUDY    69  52  54 S8        29.76S
BROOKINGS      PTCLDY    69  51  52 SE9       29.79R
SISSETON         N/A     64  56  75 E7        29.72R
$$

SDZ017-020-022-023-036>040-048>070-271100-
SOUTHEAST SOUTH DAKOTA

CITY           SKY/WX    TMP DP  RH WIND       PRES   REMARKS
SIOUX FALLS    CLOUDY    67  55  65 CALM      29.78S
HURON          PTCLDY    73  56  54 SE12      29.72S
CHAMBERLAIN    MOCLDY    69  61  74 S6        29.72R
MITCHELL       PTCLDY    70  58  65 S8        29.74S
YANKTON        PTCLDY    69  58  67 CALM      29.77R
$$

ABBREVIATIONS USED IN REMARKS
   TC - TEMPERATURE IN CELSIUS
  WCI - WIND CHILL INDEX
   HX - HEAT INDEX
  VSB - VISIBILITY





USA.gov is the U.S. government's official web portal to all federal, state and local government web resources and services.